Showing default

CSG-1, 44873

Orbit data source: Space-Track

CSG-1, 44873 is an Italian payload satellite in SSO that was launched on Wed, 18 Dec 2019 UTC via a SOYUZ-ST-A launch vehicle from the French Guiana (FRGUI). Payloads include a variety of satellites, spacecraft, and rockets equipped with specific instruments for various scientific and technological missions. These include communications satellites like Starlink; space stations such as the ISS; scientific satellites like the Hubble; Earth observation satellites from companies like Planet Labs, Umbra, and HawkEye 360; GPS; miniature CubeSats for education and research; and military/defense satellites.

Loading next visibility...
CSG-1 details
Identifier
44873, 2019-092A
Orbit
SSO
Last TLE update8 hours ago
Origin
Flag of ITMDDI/ASI (IT)
ManufacturerThales Alenia
MissionOperational Defense Radar Imaging
Bus & MotorPRIMA, AOCS
Mass2,205 kg wet, ~1,800 kg dry
Launch date (UTC)
2019-12-18 (5 years ago)
Launch vehicle
SOYUZ-ST-A
Launch site
French Guiana (FRGUI)
Object type
Payload
Rocket body
Debris
Shape & HBRBox + 3 Pan, Unknown HBR
Radar Cross Section8.940 m², Large (>1 m²)

Expand to show TLE details & history

TLE from 8 hours ago
0 CSG-1
1 44873U 19092A   24361.26245427  .00001725  00000-0  22313-3 0  9994
2 44873  97.8862 181.6474 0001529  80.8841 279.2545 14.82173686271791
Epoch: 2024-12-26T06:17Z
Definitive object data (Epoch: 2024-12-26T06:17:56.048Z)
Latitude-0.00006°
Longitude-8.0805°
Altitude625.324 km
Speed7.546 km/s
True Right ascension12h 06m 35s
True Declination0° 00' 00"
Sunlit
Object was in daylight at TLE epoch
Visualization TLE readout
Latitude24.20225°
Longitude-11.29348°
Altitude624.88 km
Speed7.549 km/s
Apparent Right ascension08h 39m 09s
Apparent Declination-20° 37' 36"
Sunlit
Object is in daylight
Visualization observer readout
Local Sidereal Time13:52:25
Azimuth246.854° WSW
Elevation-4.628°
Doppler factor1
Orbital elements
Apogee altitude620.579 km
Perigee altitude618.439 km
Semi-major axis6,997.646 km
Eccentricity0.0001529
Inclination97.8862°
RAAN181.6474°
Arg. of periapsis80.8841°
True anomaly279.23721°
Mean anomaly279.2545°
Eccentric anomaly279.24585°
Mean motion3.70779 °/min
BSTAR0.00022313
Orbital period97.09 mins
Loading maneuver chart data...
Loading historical data...
Loading historical data...
Loading historical data...
Loading historical data...
Loading historical data...
Loading historical data...
Loading historical data...

CSG-1 Visibility forecast

Observer location: undefined°, undefined

Span
Click to sort rows by Start time (UTC) header in descending order
Start Az.
Max El. time (UTC)
Max El. Az.
Max El.
End time (UTC)
End Az.
7 mins2024-12-27 00:41:33.904Z28.778° NE2024-12-27 00:45:33.904Z112.756° SE33.857°2024-12-27 00:48:33.904Z167.04° S
4 mins2024-12-27 02:19:33.904Z318.061° NNW2024-12-27 02:20:33.904Z302.264° NW15.69°2024-12-27 02:23:33.904Z257.084° W
6 mins2024-12-27 11:36:33.904Z123.511° SE2024-12-27 11:39:33.904Z61.085° ENE27.362°2024-12-27 11:42:33.904Z11.388° NNE
5 mins2024-12-27 13:13:33.904Z232.168° WSW2024-12-27 13:15:33.904Z268.546° W19.821°2024-12-27 13:18:33.904Z314.281° NW
|